Find USA-24

NORAD ID: 18010 Int'l Des: 1987-043 Owner: NRO/NRL Country: US operational
LEO

リアルタイム位置

3D地球を読み込み中...

USA-24について

説明を読み込み中...

次回通過

Passes for default location (London). Set your location on the main map for personalized predictions.

高度履歴

Loading altitude history...

軌道要素

1 18010U 87043F 26104.44876751 .00004555 00000-0 27392-3 0 9992
2 18010 63.2965 177.3469 0792220 103.4045 265.6487 13.85605648336623
Epoch: Apr 14, 2026 • Age: 21 hours

現在のステータス

高度 1270.3 km
速度 7.06 km/s
衛星直下点 -21.22°S, 151.25°W
打ち上げ日 May 15, 1987
運用期間 38.9 years
タイプ other

技術仕様

分類 Payload
質量 200.00 kg
乾燥質量 200.00 kg
総質量 200.00 kg
長さ 0.90 m
直径 0.40 m
スパン 10.00 m
形状 Box + Ant
製造者 MM
バスタイプ NOSS SSU
フェーズステータス In Orbit
所有者/国 NRO/NRL/US

Most Searched